FW8155 Weather Reports


time (UTC)temp
C
wind
direction
speed
KPH
gust
KPH
rain 1hr
cm
rain 24hr
cm
rain mn
cm
humidity
%
barometer
mb
20260507135236 11 245 6.4 27.4 0.00 0.00 0.00 50 1012.4
20260507134731 11 276 12.9 24.1 0.00 0.00 0.00 50 1012.1
20260507134228 10 263 14.5 27.4 0.00 0.00 0.00 51 1012.3
20260507133724 10 311 9.7 17.7 0.00 0.00 0.00 52 1012.1
20260507133221 10 323 6.4 32.2 0.00 0.00 0.00 53 1012.1
20260507132718 10 288 8.0 24.1 0.00 0.00 0.00 53 1012.2
20260507132215 9 317 11.3 25.7 0.00 0.00 0.00 53 1011.9
20260507131712 9 297 4.8 20.9 0.00 0.00 0.00 54 1012.1
20260507131209 9 315 16.1 27.4 0.00 0.00 0.00 54 1011.9
20260507130706 9 311 9.7 27.4 0.00 0.00 0.00 55 1012.0
20260507130204 8 310 24.1 27.4 0.00 0.00 0.00 54 1011.6
20260507125702 8 277 12.9 22.5 0.00 0.00 0.00 54 1011.6
20260507125159 8 252 20.9 30.6 0.00 0.00 0.00 54 1011.8
20260507124655 8 286 8.0 27.4 0.00 0.00 0.00 54 1011.6
20260507124153 8 267 14.5 38.6 0.00 0.00 0.00 54 1011.4
20260507123651 8 285 3.2 22.5 0.00 0.00 0.00 56 1011.6
20260507123148 8 325 11.3 22.5 0.00 0.00 0.00 57 1011.6
20260507122643 7 328 8.0 25.7 0.00 0.00 0.00 58 1011.3
20260507122139 7 284 11.3 19.3 0.00 0.00 0.00 59 1011.3
20260507121635 7 297 14.5 19.3 0.00 0.00 0.00 59 1011.6
20260507121131 7 342 3.2 20.9 0.00 0.00 0.00 60 1011.4
20260507120628 6 263 4.8 20.9 0.00 0.00 0.00 60 1011.3
20260507120125 6 348 3.2 17.7 0.00 0.00 0.00 60 1011.5
20260507115621 6 205 4.8 11.3 0.00 0.00 0.00 61 1011.4
20260507115117 6 270 4.8 20.9 0.00 0.00 0.00 62 1011.4
20260507114613 5 280 8.0 14.5 0.00 0.00 0.00 64 1011.4
20260507114110 5 264 6.4 14.5 0.00 0.00 0.00 67 1011.3
20260507113607 2 275 6.4 9.7 0.00 0.00 0.00 78 1011.4
20260507113104 1 154 0.0 4.8 0.00 0.00 0.00 80 1011.8
20260507112602 1 173 1.6 4.8 0.00 0.00 0.00 78 1011.6
20260507112059 2 144 3.2 6.4 0.00 0.00 0.00 76 1011.5
20260507111555 2 175 3.2 6.4 0.00 0.00 0.00 75 1011.6
20260507111052 3 175 3.2 4.8 0.00 0.00 0.00 73 1011.6
20260507110549 3 148 0.0 6.4 0.00 0.00 0.00 72 1011.5
20260507110045 3 212 6.4 8.0 0.00 0.00 0.00 71 1011.3
20260507105542 3 189 3.2 8.0 0.00 0.00 0.00 70 1011.4
20260507105038 4 251 1.6 11.3 0.00 0.00 0.00 69 1011.3
20260507104536 5 219 11.3 17.7 0.00 0.00 0.00 68 1011.4
20260507104032 5 199 3.2 19.3 0.00 0.00 0.00 67 1011.4
20260507103528 5 261 14.5 24.1 0.00 0.00 0.00 65 1011.5
20260507103025 5 247 8.0 17.7 0.00 0.00 0.00 65 1011.5
20260507102522 5 253 11.3 20.9 0.00 0.00 0.00 65 1011.4
20260507102018 5 235 19.3 20.9 0.00 0.00 0.00 66 1011.2
20260507101513 4 288 8.0 17.7 0.00 0.00 0.00 68 1011.5
20260507101010 3 182 4.8 16.1 0.00 0.00 0.00 71 1011.4
20260507100507 3 210 8.0 14.5 0.00 0.00 0.00 74 1011.3
20260507100005 2 239 6.4 12.9 0.00 0.00 0.00 76 1011.6
20260507095503 2 231 3.2 11.3 0.00 0.00 0.00 76 1011.4
20260507094959 2 125 0.0 12.9 0.00 0.00 0.00 77 1011.6
20260507094455 2 29 1.6 16.1 0.00 0.00 0.00 76 1011.3
20260507093953 2 217 8.0 8.0 0.00 0.00 0.00 76 1011.6
20260507093450 2 257 3.2 9.7 0.00 0.00 0.00 75 1011.6
20260507092948 2 138 4.8 14.5 0.00 0.00 0.00 75 1011.8
20260507092444 2 166 0.0 11.3 0.00 0.00 0.00 75 1011.8
20260507091941 2 214 4.8 11.3 0.00 0.00 0.00 76 1011.8
20260507091438 2 229 4.8 11.3 0.00 0.00 0.00 77 1011.6
20260507090934 2 242 8.0 11.3 0.00 0.00 0.00 78 1011.8
20260507090430 2 216 4.8 9.7 0.00 0.00 0.00 78 1012.0
20260507085927 2 156 4.8 17.7 0.00 0.00 0.00 78 1012.0
20260507085424 2 196 9.7 9.7 0.00 0.00 0.00 79 1011.9
20260507084921 2 71 3.2 19.3 0.00 0.00 0.00 79 1012.1
20260507084418 1 180 8.0 11.3 0.00 0.00 0.00 79 1012.1
20260507083915 1 161 3.2 11.3 0.00 0.00 0.00 80 1012.2
20260507083411 1 167 4.8 16.1 0.00 0.00 0.00 80 1012.0
20260507082908 1 130 0.0 8.0 0.00 0.00 0.00 80 1012.2
20260507082403 1 180 6.4 14.5 0.00 0.00 0.00 80 1012.2
20260507081901 1 246 1.6 8.0 0.00 0.00 0.00 80 1012.3
20260507081356 1 142 4.8 6.4 0.00 0.00 0.00 80 1012.3
20260507080853 1 170 0.0 6.4 0.00 0.00 0.00 79 1012.5
20260507080349 2 81 3.2 11.3 0.00 0.00 0.00 79 1012.4
20260507075845 2 197 3.2 9.7 0.00 0.00 0.00 79 1012.4
20260507075341 2 235 4.8 11.3 0.00 0.00 0.00 79 1012.8
20260507074838 2 200 4.8 14.5 0.00 0.00 0.00 78 1012.8
20260507074335 2 206 6.4 16.1 0.00 0.00 0.00 78 1012.7
20260507073832 2 216 4.8 16.1 0.00 0.00 0.00 78 1012.8
20260507073329 2 190 8.0 17.7 0.00 0.00 0.00 78 1012.9
20260507072826 2 157 1.6 17.7 0.00 0.00 0.00 78 1013.2
20260507072324 2 248 8.0 14.5 0.00 0.00 0.00 78 1013.2
20260507071821 2 226 8.0 27.4 0.00 0.00 0.00 78 1013.5
20260507071318 2 231 17.7 19.3 0.00 0.00 0.00 78 1013.3
20260507070814 2 222 8.0 37.0 0.00 0.00 0.00 77 1013.2
20260507070312 2 180 11.3 35.4 0.00 0.00 0.00 77 1013.2
20260507065808 2 233 9.7 24.1 0.00 0.00 0.00 77 1013.2
20260507065306 2 203 3.2 35.4 0.00 0.00 0.00 77 1013.3
20260507064802 2 175 1.6 30.6 0.00 0.00 0.00 77 1013.2
20260507064301 3 228 24.1 24.1 0.00 0.00 0.00 76 1013.5
20260507063758 3 180 4.8 27.4 0.00 0.00 0.00 76 1013.6
20260507063255 3 208 14.5 25.7 0.00 0.00 0.00 76 1013.5
20260507062752 3 277 6.4 24.1 0.00 0.00 0.00 76 1013.8
20260507062249 3 240 4.8 22.5 0.00 0.00 0.00 76 1013.6
20260507061747 3 194 8.0 19.3 0.00 0.00 0.00 76 1013.8
20260507061244 3 226 12.9 24.1 0.00 0.00 0.00 76 1013.7
20260507060743 3 235 17.7 46.7 0.00 0.00 0.00 76 1013.7
20260507060239 3 246 11.3 30.6 0.00 0.00 0.00 76 1014.0
20260507055735 3 224 14.5 30.6 0.00 0.13 0.13 76 1013.7
20260507055230 3 189 6.4 32.2 0.00 0.13 0.13 76 1013.8
20260507054727 3 203 14.5 32.2 0.00 0.13 0.13 76 1013.7
20260507054224 3 292 8.0 27.4 0.00 0.13 0.13 76 1013.6
20260507053721 3 227 8.0 29.0 0.00 0.13 0.13 76 1013.8
20260507053219 3 185 9.7 20.9 0.00 0.13 0.13 76 1013.9
20260507052718 3 215 8.0 27.4 0.00 0.13 0.13 76 1013.9
20260507052213 3 162 12.9 25.7 0.00 0.13 0.13 76 1013.8
20260507051712 3 206 6.4 25.7 0.00 0.13 0.13 76 1013.8
20260507051208 3 208 8.0 25.7 0.00 0.13 0.13 75 1013.9
20260507050705 3 223 11.3 27.4 0.00 0.13 0.13 75 1013.9
20260507050202 3 165 8.0 22.5 0.00 0.13 0.13 75 1014.0
20260507045659 3 202 9.7 27.4 0.00 0.13 0.13 75 1014.4
20260507045156 3 209 11.3 27.4 0.00 0.13 0.13 74 1014.3
20260507044652 3 240 6.4 25.7 0.00 0.13 0.13 75 1014.1
20260507044148 3 206 4.8 25.7 0.00 0.13 0.13 75 1014.3
20260507043645 3 180 1.6 20.9 0.00 0.13 0.13 75 1014.3
20260507043142 3 151 4.8 20.9 0.00 0.13 0.13 75 1014.0
20260507042638 3 202 11.3 25.7 0.00 0.13 0.13 75 1014.1
20260507042134 3 206 1.6 11.3 0.00 0.13 0.13 75 1014.4
20260507041631 3 148 4.8 12.9 0.00 0.13 0.13 74 1014.5
20260507041127 3 169 1.6 11.3 0.00 0.13 0.13 74 1014.6
20260507040624 3 244 4.8 11.3 0.00 0.13 0.13 74 1014.5
20260507040121 3 292 4.8 8.0 0.00 0.13 0.13 74 1014.7
20260507035616 3 203 3.2 9.7 0.00 0.13 0.13 73 1014.7
20260507035113 3 173 3.2 8.0 0.00 0.13 0.13 74 1014.8
20260507034610 3 197 0.0 11.3 0.00 0.13 0.13 74 1015.1
20260507034107 3 144 3.2 6.4 0.00 0.13 0.13 75 1015.2
20260507033606 3 161 4.8 6.4 0.00 0.13 0.13 76 1014.8
20260507033102 3 140 4.8 6.4 0.00 0.13 0.13 76 1014.7
20260507032600 2 184 6.4 8.0 0.00 0.13 0.13 77 1015.1
20260507032056 2 180 1.6 4.8 0.00 0.13 0.13 77 1015.3
20260507031552 2 175 3.2 4.8 0.00 0.13 0.13 76 1015.4
20260507031049 2 139 3.2 4.8 0.00 0.13 0.13 76 1015.4
20260507030545 2 180 1.6 4.8 0.00 0.13 0.13 75 1015.3
20260507030044 2 85 0.0 4.8 0.00 0.13 0.13 74 1015.3
20260507025540 3 151 3.2 4.8 0.00 0.13 0.13 73 1015.3
20260507025038 3 154 0.0 4.8 0.00 0.13 0.13 72 1015.3
20260507024536 3 157 1.6 4.8 0.00 0.13 0.13 71 1014.9
20260507024032 3 120 1.6 4.8 0.00 0.13 0.13 70 1014.9
20260507023528 3 192 0.0 8.0 0.00 0.13 0.13 69 1014.9
20260507023026 3 82 0.0 3.2 0.00 0.13 0.13 69 1015.1
20260507022522 3 121 0.0 3.2 0.00 0.13 0.13 68 1014.9
20260507022018 3 199 3.2 3.2 0.00 0.13 0.13 66 1015.1
20260507021514 4 255 4.8 6.4 0.00 0.13 0.13 63 1015.2
20260507021011 5 180 1.6 8.0 0.00 0.13 0.13 61 1015.2
20260507020508 5 111 0.0 3.2 0.00 0.13 0.13 60 1014.9
20260507020004 5 286 3.2 4.8 0.00 0.13 0.13 58 1014.8
20260507015503 6 243 0.0 8.0 0.00 0.13 0.13 56 1015.3
20260507015000 6 212 4.8 9.7 0.00 0.13 0.13 55 1015.2
20260507014456 6 244 4.8 9.7 0.00 0.13 0.13 52 1015.3
20260507013952 7 282 6.4 11.3 0.00 0.13 0.13 52 1015.1
20260507013449 7 235 0.0 11.3 0.00 0.13 0.13 51 1015.2
20260507012947 7 268 8.0 12.9 0.00 0.13 0.13 47 1015.4
20260507012443 8 248 6.4 12.9 0.00 0.13 0.13 46 1015.3
20260507011940 8 229 14.5 22.5 0.00 0.13 0.13 43 1015.2
20260507011437 8 258 8.0 12.9 0.00 0.13 0.13 41 1015.3
20260507010937 8 236 11.3 19.3 0.00 0.13 0.13 41 1015.1
20260507010433 8 301 6.4 20.9 0.00 0.13 0.13 40 1015.4
20260507005930 9 267 12.9 20.9 0.00 0.13 0.13 41 1015.2
20260507005427 9 237 3.2 22.5 0.00 0.13 0.13 42 1015.3
20260507004923 9 192 1.6 25.7 0.00 0.13 0.13 41 1015.1
20260507004420 9 276 8.0 20.9 0.00 0.13 0.13 40 1015.2
20260507003918 9 253 8.0 24.1 0.00 0.13 0.13 40 1015.3
20260507003413 9 245 8.0 24.1 0.00 0.13 0.13 41 1015.2
20260507002908 9 212 8.0 24.1 0.00 0.13 0.13 41 1015.1
20260507002405 10 265 9.7 24.1 0.00 0.13 0.13 39 1015.6
20260507001902 10 203 1.6 14.5 0.00 0.13 0.13 38 1015.4
20260507001359 10 259 11.3 22.5 0.00 0.13 0.13 41 1015.6
20260507000856 10 269 17.7 25.7 0.00 0.13 0.13 39 1015.5
20260507000350 10 302 4.8 22.5 0.00 0.13 0.13 40 1015.7
20260506235847 10 195 4.8 22.5 0.00 0.13 0.13 40 1015.6
20260506235345 9 63 1.6 20.9 0.00 0.13 0.13 40 1015.7
20260506234840 9 257 12.9 24.1 0.00 0.13 0.13 44 1015.6
20260506234338 10 251 16.1 24.1 0.00 0.13 0.13 42 1015.6
20260506233836 9 154 6.4 27.4 0.00 0.13 0.13 42 1015.6
20260506233331 9 227 16.1 19.3 0.00 0.13 0.13 43 1015.8
20260506232829 8 256 12.9 19.3 0.00 0.13 0.13 44 1015.7
20260506232324 10 254 12.9 17.7 0.00 0.13 0.13 43 1015.6
20260506231821 8 214 6.4 24.1 0.00 0.13 0.13 45 1015.7
20260506231319 9 205 6.4 22.5 0.00 0.13 0.13 46 1015.7
20260506230816 11 206 16.1 30.6 0.00 0.13 0.13 42 1015.6
20260506230313 10 168 3.2 17.7 0.00 0.13 0.13 45 1015.7
20260506225809 8 0 6.4 11.3 0.00 0.13 0.13 44 1015.7
20260506225306 8 265 6.4 16.1 0.00 0.13 0.13 43 1015.7
20260506224803 9 265 17.7 24.1 0.00 0.13 0.13 43 1015.7
20260506224300 9 347 4.8 22.5 0.00 0.13 0.13 43 1015.7
20260506223756 10 206 4.8 17.7 0.00 0.13 0.13 40 1015.6
20260506223251 9 184 11.3 16.1 0.00 0.13 0.13 44 1015.6
20260506222748 10 299 9.7 17.7 0.00 0.13 0.13 42 1015.8
20260506222244 10 209 8.0 14.5 0.00 0.13 0.13 41 1016.1
20260506221742 8 233 8.0 27.4 0.00 0.13 0.13 44 1016.1
20260506221240 10 266 6.4 20.9 0.00 0.13 0.13 42 1016.1
20260506220737 10 218 9.7 32.2 0.00 0.13 0.13 41 1015.8
20260506220232 9 277 1.6 9.7 0.00 0.13 0.13 43 1016.2
20260506215729 8 292 4.8 17.7 0.00 0.13 0.13 43 1016.2
20260506215225 8 255 14.5 19.3 0.00 0.13 0.13 43 1016.3
20260506214721 9 275 8.0 17.7 0.00 0.13 0.13 43 1016.4
20260506214218 10 236 12.9 17.7 0.00 0.13 0.13 43 1016.3
20260506213717 10 188 6.4 19.3 0.00 0.13 0.13 42 1016.4
20260506213214 8 306 6.4 17.7 0.00 0.13 0.13 44 1016.4
20260506212711 8 241 4.8 17.7 0.00 0.13 0.13 43 1016.5
20260506212206 8 240 0.0 24.1 0.00 0.13 0.13 45 1016.9
20260506211702 8 270 4.8 20.9 0.00 0.13 0.13 45 1016.9
20260506211158 8 223 6.4 17.7 0.00 0.13 0.13 43 1016.6
20260506210655 8 314 12.9 14.5 0.00 0.13 0.13 43 1017.0
20260506210152 8 218 4.8 9.7 0.00 0.13 0.13 43 1017.1
20260506205649 8 277 16.1 16.1 0.00 0.13 0.13 45 1017.0
20260506205144 8 169 6.4 20.9 0.00 0.13 0.13 44 1017.1
20260506204642 8 235 9.7 29.0 0.00 0.13 0.13 44 1017.3
20260506204138 8 342 8.0 17.7 0.00 0.13 0.13 44 1017.3
20260506203637 8 314 6.4 17.7 0.00 0.13 0.13 44 1017.4
20260506203133 8 236 8.0 11.3 0.00 0.13 0.13 45 1017.4
20260506202632 7 28 4.8 14.5 0.00 0.13 0.13 45 1017.4
20260506202127 8 325 14.5 19.3 0.00 0.13 0.13 45 1017.4
20260506201625 8 252 9.7 11.3 0.00 0.13 0.13 44 1017.7
20260506201121 8 261 0.0 6.4 0.00 0.13 0.13 44 1017.4
20260506200618 8 318 16.1 16.1 0.00 0.13 0.13 45 1017.6
20260506200114 8 284 4.8 8.0 0.00 0.13 0.13 45 1017.9
20260506195611 7 190 6.4 24.1 0.00 0.13 0.13 44 1017.8
20260506195107 8 262 9.7 20.9 0.00 0.13 0.13 44 1017.8
20260506194605 7 183 8.0 17.7 0.00 0.13 0.13 44 1017.9
20260506194101 7 270 3.2 16.1 0.00 0.13 0.13 46 1017.8
20260506193559 7 27 4.8 12.9 0.00 0.13 0.13 45 1017.9
20260506193056 7 29 3.2 11.3 0.00 0.13 0.13 46 1018.1
20260506192553 7 202 6.4 11.3 0.00 0.13 0.13 45 1017.9
20260506192049 8 186 11.3 12.9 0.00 0.13 0.13 43 1018.0
20260506191545 7 85 3.2 19.3 0.00 0.13 0.13 45 1018.2
20260506191041 7 268 8.0 11.3 0.00 0.13 0.13 43 1018.1
20260506190539 7 346 8.0 16.1 0.00 0.13 0.13 46 1018.0
20260506190036 7 337 0.0 11.3 0.00 0.13 0.13 45 1018.2
20260506185533 6 67 4.8 14.5 0.00 0.13 0.13 44 1018.2
20260506185029 7 359 9.7 14.5 0.00 0.13 0.13 46 1018.3
20260506184527 7 4 8.0 20.9 0.00 0.13 0.13 43 1018.3
20260506184024 6 330 8.0 24.1 0.00 0.13 0.13 46 1018.3
20260506183520 7 40 16.1 20.9 0.00 0.13 0.13 48 1018.1
20260506183017 6 125 6.4 8.0 0.00 0.13 0.13 44 1018.3
20260506182514 7 346 17.7 24.1 0.00 0.13 0.13 44 1018.6
20260506182011 6 0 6.4 14.5 0.00 0.13 0.13 45 1018.6
20260506181509 5 12 8.0 16.1 0.00 0.13 0.13 51 1018.6
20260506181006 6 24 9.7 22.5 0.00 0.13 0.13 48 1018.5
20260506180502 6 135 6.4 14.5 0.00 0.13 0.13 45 1018.6
20260506175959 6 125 8.0 16.1 0.00 0.13 0.13 48 1018.5
20260506175455 6 351 8.0 12.9 0.00 0.13 0.13 50 1018.7
20260506174952 6 20 9.7 24.1 0.00 0.13 0.13 46 1018.7
20260506174450 6 9 9.7 16.1 0.00 0.13 0.13 47 1018.7
20260506173946 6 42 11.3 37.0 0.00 0.13 0.13 50 1018.7
20260506173444 6 357 8.0 12.9 0.00 0.13 0.13 48 1018.9
20260506172940 5 234 1.6 8.0 0.00 0.13 0.13 46 1018.8
20260506172438 6 32 14.5 16.1 0.00 0.13 0.13 46 1018.8
20260506171934 6 50 8.0 24.1 0.00 0.13 0.13 48 1018.8
20260506171432 6 6 16.1 19.3 0.00 0.13 0.13 50 1018.8
20260506170930 5 32 9.7 17.7 0.00 0.13 0.13 49 1018.8
20260506170425 5 36 6.4 20.9 0.00 0.13 0.13 52 1018.7
20260506165919 5 1 11.3 19.3 0.00 0.13 0.13 50 1018.9
20260506165417 5 348 8.0 11.3 0.00 0.13 0.13 52 1019.0
20260506164912 5 45 8.0 16.1 0.00 0.13 0.13 51 1018.9
20260506164409 5 10 9.7 17.7 0.00 0.13 0.13 50 1018.9
20260506163908 5 324 6.4 9.7 0.00 0.13 0.13 51 1018.8
20260506163401 5 288 9.7 16.1 0.00 0.13 0.13 53 1018.8
20260506162856 5 355 11.3 20.9 0.00 0.13 0.13 53 1018.9
20260506162355 5 17 11.3 19.3 0.00 0.13 0.13 59 1018.7
20260506161852 4 14 16.1 19.3 0.00 0.13 0.13 55 1018.7
20260506161350 4 57 11.3 20.9 0.00 0.13 0.13 54 1018.7
20260506160847 5 29 24.1 25.7 0.00 0.13 0.13 58 1018.7
20260506160344 3 23 11.3 17.7 0.00 0.13 0.13 58 1018.8
20260506155842 5 45 12.9 19.3 0.00 0.13 0.13 60 1018.5
20260506155338 4 356 14.5 20.9 0.00 0.13 0.13 59 1018.6
20260506153456 4 341 17.7 22.5 0.00 0.13 0.13 62 1018.3
20260506152954 4 4 17.7 38.6 0.00 0.13 0.13 64 1018.5
20260506152450 3 6 12.9 14.5 0.00 0.13 0.13 68 1018.7
20260506151949 3 6 6.4 22.5 0.00 0.13 0.13 70 1018.2
20260506151446 3 48 9.7 16.1 0.00 0.13 0.13 70 1018.5
20260506150943 3 24 14.5 17.7 0.00 0.13 0.13 74 1018.6
20260506150439 2 14 8.0 17.7 0.00 0.13 0.13 73 1018.9
20260506145936 2 16 11.3 17.7 0.00 0.13 0.13 74 1018.3
20260506145432 3 17 9.7 17.7 0.00 0.13 0.13 77 1018.9
20260506144930 2 0 8.0 16.1 0.00 0.13 0.13 77 1018.6
20260506144427 2 51 11.3 17.7 0.00 0.13 0.13 77 1018.6
20260506143925 2 8 8.0 20.9 0.00 0.13 0.13 78 1018.6
20260506143422 2 27 12.9 22.5 0.00 0.13 0.13 77 1018.7
20260506142920 2 1 11.3 20.9 0.00 0.13 0.13 79 1018.7
20260506142418 2 13 14.5 24.1 0.00 0.13 0.13 81 1018.3
20260506141916 2 0 12.9 17.7 0.00 0.13 0.13 83 1018.6
20260506141413 1 7 8.0 41.8 0.00 0.13 0.13 83 1018.3
20260506140911 1 357 8.0 11.3 0.00 0.13 0.13 84 1018.3
20260506140408 1 2 4.8 11.3 0.00 0.13 0.13 85 1018.5
20260506135905 1 3 8.0 8.0 0.05 0.13 0.13 86 1018.7
20260506135402 1 351 6.4 8.0 0.05 0.13 0.13 86 1018.6